Location: Silent Lake
(44.9206°N, 78.0708°W)
Time: 06:42:22
(UTC-04:00)

Cosmos 1624 Rocket - Pass Details

Date: 19 April 2018
Orbit: 758 x 783 km, 74.0° (Epoch: 21 September)

Event Time Altitude Azimuth Distance (km) Brightness Sun altitude
Exits shadow 21:50:48 31° 144° (SE) 1,322 4.7 -17.7°
Maximum altitude 21:52:31 40° 103° (ESE) 1,113 4.4 -18.0°
Drops below altitude 10° 21:57:20 10° 35° (NE) 2,297 6.5 -18.6°
Sets 21:59:50 0° 28° (NNE) 3,227 7.4 -19.0°
